Time,TemperatureF,DewpointF,PressureIn,WindDirection,WindDirectionDegrees,WindSpeedMPH,WindSpeedGustMPH,Humidity,HourlyPrecipIn,Conditions,Clouds,dailyrainin,SoftwareType,DateUTC
2013-05-10 00:03:00,60.0,57.0,-100.00,WSW,255,1.0,2.0,89,0.00,,,-99.99,,2013-05-10 04:03:00,
2013-05-10 00:12:00,60.0,57.0,-100.00,SSW,210,0.0,2.0,90,0.00,,,-99.99,,2013-05-10 04:12:00,
2013-05-10 00:23:00,60.0,57.0,-100.00,SSE,150,0.0,2.0,93,0.00,,,-99.99,,2013-05-10 04:23:00,
2013-05-10 00:43:00,60.0,57.0,-100.00,SW,235,0.0,1.0,90,0.00,,,-99.99,,2013-05-10 04:43:00,
2013-05-10 00:52:00,60.0,57.0,-100.00,South,190,0.0,1.0,91,0.00,,,-99.99,,2013-05-10 04:52:00,
2013-05-10 01:02:00,60.0,57.0,-100.00,South,170,0.0,0.0,91,0.00,,,-99.99,,2013-05-10 05:02:00,
2013-05-10 01:12:00,60.0,58.0,-100.00,SSW,210,0.0,0.0,91,0.00,,,-99.99,,2013-05-10 05:12:00,
2013-05-10 01:22:00,60.0,58.0,-100.00,WSW,245,0.0,0.0,93,0.00,,,-99.99,,2013-05-10 05:22:00,
2013-05-10 01:32:00,60.0,58.0,-100.00,WSW,255,0.0,2.0,92,0.00,,,-99.99,,2013-05-10 05:32:00,
2013-05-10 01:42:00,60.0,58.0,-100.00,South,170,0.0,0.0,94,0.00,,,-99.99,,2013-05-10 05:42:00,
2013-05-10 01:52:00,60.0,58.0,-100.00,South,190,0.0,0.0,95,0.00,,,-99.99,,2013-05-10 05:52:00,
2013-05-10 02:02:00,60.0,58.0,-100.00,NE,40,0.0,1.0,95,0.00,,,-99.99,,2013-05-10 06:02:00,
2013-05-10 02:12:00,60.0,59.0,-100.00,SW,225,0.0,1.0,96,0.00,,,-99.99,,2013-05-10 06:12:00,
2013-05-10 02:21:00,60.0,58.0,-100.00,NE,40,1.0,1.0,93,0.00,,,-99.99,,2013-05-10 06:21:00,
2013-05-10 02:32:00,60.0,58.0,-100.00,ENE,65,0.0,0.0,95,0.00,,,-99.99,,2013-05-10 06:32:00,
2013-05-10 02:42:00,60.0,59.0,-100.00,South,175,0.0,1.0,97,0.00,,,-99.99,,2013-05-10 06:42:00,
2013-05-10 02:52:00,60.0,-99.9,-100.00,ESE,115,0.0,2.0,-999,0.00,,,-99.99,,2013-05-10 06:52:00,
2013-05-10 03:02:00,60.0,59.0,-100.00,ENE,65,0.0,1.0,97,0.00,,,-99.99,,2013-05-10 07:02:00,
2013-05-10 03:12:00,60.0,59.0,-100.00,NE,45,0.0,2.0,95,0.00,,,-99.99,,2013-05-10 07:12:00,
2013-05-10 03:22:00,61.0,59.0,-100.00,NE,55,1.0,2.0,93,0.00,,,-99.99,,2013-05-10 07:22:00,
2013-05-10 03:32:00,61.0,58.0,-100.00,NE,50,1.0,3.0,91,0.00,,,-99.99,,2013-05-10 07:32:00,
2013-05-10 03:42:00,61.0,58.0,-100.00,NE,45,1.0,2.0,90,0.00,,,-99.99,,2013-05-10 07:42:00,
2013-05-10 03:52:00,61.0,58.0,-100.00,NE,55,0.0,1.0,91,0.00,,,-99.99,,2013-05-10 07:52:00,
2013-05-10 04:02:00,61.0,58.0,-100.00,ENE,75,0.0,2.0,90,0.00,,,-99.99,,2013-05-10 08:02:00,
2013-05-10 04:12:00,61.0,58.0,-100.00,SSE,150,0.0,2.0,91,0.00,,,-99.99,,2013-05-10 08:12:00,
2013-05-10 04:22:00,61.0,58.0,-100.00,NE,50,0.0,2.0,90,0.00,,,-99.99,,2013-05-10 08:22:00,
2013-05-10 04:33:00,60.0,-99.9,-100.00,North,0,2.0,11.0,-999,1.69,,,-99.99,,2013-05-10 08:33:00,
2013-05-10 04:42:00,61.0,-99.9,-100.00,East,100,0.0,4.0,-999,0.00,,,-99.99,,2013-05-10 08:42:00,
2013-05-10 04:52:00,61.0,-99.9,-100.00,North,10,0.0,2.0,-999,13.58,,,-99.99,,2013-05-10 08:52:00,
2013-05-10 05:02:00,60.0,-99.9,-100.00,North,5,1.0,9.0,-999,26.06,,,-99.99,,2013-05-10 09:02:00,
2013-05-10 05:11:00,59.0,-99.9,-100.00,ENE,70,0.0,6.0,-999,0.00,,,-99.99,,2013-05-10 09:11:00,
2013-05-10 05:22:00,59.0,-99.9,-100.00,North,350,0.0,1.0,-999,0.00,,,-99.99,,2013-05-10 09:22:00,
2013-05-10 05:33:00,59.0,-99.9,-100.00,WSW,245,0.0,3.0,-999,0.55,,,-99.99,,2013-05-10 09:33:00,
2013-05-10 05:43:00,59.0,-99.9,-100.00,East,85,4.0,6.0,-999,0.00,,,-99.99,,2013-05-10 09:43:00,
2013-05-10 05:53:00,59.0,-99.9,-100.00,SE,140,2.0,7.0,-999,0.00,,,-99.99,,2013-05-10 09:53:00,
2013-05-10 06:03:00,59.0,-99.9,-100.00,SSW,205,2.0,5.0,-999,0.00,,,-99.99,,2013-05-10 10:03:00,
2013-05-10 06:12:00,59.0,-99.9,-100.00,NE,50,0.0,9.0,-999,0.55,,,-99.99,,2013-05-10 10:12:00,
2013-05-10 06:23:00,60.0,-99.9,-100.00,NNE,25,1.0,3.0,-999,0.00,,,-99.99,,2013-05-10 10:23:00,
2013-05-10 06:33:00,60.0,-99.9,-100.00,NNE,20,0.0,2.0,-999,0.00,,,-99.99,,2013-05-10 10:33:00,
2013-05-10 06:42:00,60.0,-99.9,-100.00,ENE,65,0.0,2.0,-999,0.00,,,-99.99,,2013-05-10 10:42:00,
2013-05-10 06:53:00,60.0,-99.9,-100.00,NE,40,0.0,3.0,-999,0.00,,,-99.99,,2013-05-10 10:53:00,
2013-05-10 07:02:00,59.0,-99.9,-100.00,ESE,115,1.0,2.0,-999,0.00,,,-99.99,,2013-05-10 11:02:00,
2013-05-10 07:12:00,60.0,-99.9,-100.00,North,5,0.0,3.0,-999,0.00,,,-99.99,,2013-05-10 11:12:00,
2013-05-10 07:22:00,60.0,-99.9,-100.00,East,80,1.0,3.0,-999,0.55,,,-99.99,,2013-05-10 11:22:00,
2013-05-10 07:32:00,60.0,-99.9,-100.00,SSW,210,0.0,3.0,-999,0.00,,,-99.99,,2013-05-10 11:32:00,
2013-05-10 07:42:00,60.0,-99.9,-100.00,ENE,60,1.0,3.0,-999,0.00,,,-99.99,,2013-05-10 11:42:00,
2013-05-10 07:52:00,60.0,-99.9,-100.00,NNE,20,1.0,3.0,-999,0.00,,,-99.99,,2013-05-10 11:52:00,
2013-05-10 08:02:00,61.0,-99.9,-100.00,SE,130,1.0,4.0,-999,0.00,,,-99.99,,2013-05-10 12:02:00,
2013-05-10 08:12:00,61.0,-99.9,-100.00,WNW,290,1.0,6.0,-999,0.00,,,-99.99,,2013-05-10 12:12:00,
2013-05-10 08:22:00,61.0,-99.9,-100.00,North,0,0.0,2.0,-999,0.00,,,-99.99,,2013-05-10 12:22:00,
2013-05-10 08:32:00,61.0,-99.9,-100.00,NE,40,0.0,4.0,-999,0.00,,,-99.99,,2013-05-10 12:32:00,
2013-05-10 08:42:00,62.0,-99.9,-100.00,NNE,15,1.0,3.0,-999,0.00,,,-99.99,,2013-05-10 12:42:00,
2013-05-10 08:52:00,62.0,-99.9,-100.00,NE,40,1.0,4.0,-999,0.00,,,-99.99,,2013-05-10 12:52:00,
2013-05-10 09:01:00,62.0,-99.9,-100.00,NE,50,2.0,4.0,-999,0.00,,,-99.99,,2013-05-10 13:01:00,
2013-05-10 09:11:00,63.0,-99.9,-100.00,NE,50,1.0,6.0,-999,0.00,,,-99.99,,2013-05-10 13:11:00,
2013-05-10 09:21:00,63.0,-99.9,-100.00,NE,50,2.0,4.0,-999,0.00,,,-99.99,,2013-05-10 13:21:00,
2013-05-10 09:32:00,64.0,-99.9,-100.00,West,270,0.0,4.0,-999,0.00,,,-99.99,,2013-05-10 13:32:00,
2013-05-10 09:42:00,65.0,63.0,-100.00,ENE,70,1.0,3.0,92,0.00,,,-99.99,,2013-05-10 13:42:00,
2013-05-10 09:52:00,66.0,62.0,-100.00,NE,40,1.0,4.0,86,0.00,,,-99.99,,2013-05-10 13:52:00,
2013-05-10 10:02:00,66.0,62.0,-100.00,SE,130,2.0,6.0,84,0.00,,,-99.99,,2013-05-10 14:02:00,
2013-05-10 10:11:00,67.0,61.0,-100.00,SE,135,2.0,5.0,79,0.55,,,-99.99,,2013-05-10 14:11:00,
2013-05-10 10:21:00,68.0,61.0,-100.00,SW,235,1.0,6.0,76,0.55,,,-99.99,,2013-05-10 14:21:00,
2013-05-10 10:32:00,69.0,60.0,-100.00,SSW,200,2.0,7.0,74,0.55,,,-99.99,,2013-05-10 14:32:00,
2013-05-10 10:42:00,70.0,60.0,-100.00,SSE,165,2.0,7.0,71,0.00,,,-99.99,,2013-05-10 14:42:00,
2013-05-10 10:51:00,70.0,61.0,-100.00,SSE,160,4.0,9.0,71,1.69,,,-99.99,,2013-05-10 14:51:00,
2013-05-10 11:02:00,71.0,62.0,-100.00,WSW,240,2.0,8.0,71,0.00,,,-99.99,,2013-05-10 15:02:00,
2013-05-10 11:20:00,-999.0,-99.9,-100.00,SSW,210,5.0,9.0,69,0.55,,,-99.99,,2013-05-10 15:20:00,
2013-05-10 11:32:00,72.0,60.0,-100.00,South,185,5.0,9.0,67,0.00,,,-99.99,,2013-05-10 15:32:00,
2013-05-10 11:42:00,73.0,61.0,-100.00,SSW,195,2.0,10.0,67,0.00,,,-99.99,,2013-05-10 15:42:00,
2013-05-10 11:52:00,74.0,61.0,-100.00,SSW,200,4.0,8.0,64,0.00,,,-99.99,,2013-05-10 15:52:00,
2013-05-10 12:02:00,73.0,60.0,-100.00,SSW,210,5.0,16.0,63,0.00,,,-99.99,,2013-05-10 16:02:00,
2013-05-10 12:12:00,74.0,62.0,-100.00,SSW,205,3.0,7.0,66,0.00,,,-99.99,,2013-05-10 16:12:00,
2013-05-10 12:23:00,73.0,61.0,-100.00,SSW,200,7.0,14.0,64,0.00,,,-99.99,,2013-05-10 16:23:00,
2013-05-10 12:33:00,74.0,61.0,-100.00,SW,225,6.0,9.0,64,0.00,,,-99.99,,2013-05-10 16:33:00,
2013-05-10 12:43:00,73.0,59.0,-100.00,SSE,160,6.0,10.0,61,0.00,,,-99.99,,2013-05-10 16:43:00,
2013-05-10 12:52:00,75.0,61.0,-100.00,SSW,205,3.0,9.0,62,0.00,,,-99.99,,2013-05-10 16:52:00,
2013-05-10 13:02:00,74.0,60.0,-100.00,SSE,155,4.0,11.0,60,0.00,,,-99.99,,2013-05-10 17:02:00,
2013-05-10 13:12:00,75.0,60.0,-100.00,SW,220,9.0,13.0,61,0.00,,,-99.99,,2013-05-10 17:12:00,
2013-05-10 13:22:00,75.0,60.0,-100.00,SSW,210,9.0,12.0,59,0.00,,,-99.99,,2013-05-10 17:22:00,
2013-05-10 13:32:00,74.0,60.0,-100.00,SW,215,6.0,14.0,62,0.00,,,-99.99,,2013-05-10 17:32:00,
2013-05-10 13:42:00,74.0,60.0,-100.00,SW,215,7.0,15.0,61,0.00,,,-99.99,,2013-05-10 17:42:00,
2013-05-10 13:52:00,75.0,61.0,-100.00,SW,215,3.0,10.0,63,0.00,,,-99.99,,2013-05-10 17:52:00,
2013-05-10 14:10:00,-999.0,-99.9,-100.00,SSW,205,7.0,12.0,61,0.00,,,-99.99,,2013-05-10 18:10:00,
2013-05-10 14:22:00,73.0,61.0,-100.00,SSW,210,4.0,12.0,64,0.00,,,-99.99,,2013-05-10 18:22:00,
2013-05-10 14:34:00,73.0,61.0,-100.00,SW,225,7.0,10.0,65,0.00,,,-99.99,,2013-05-10 18:34:00,
2013-05-10 14:43:00,73.0,60.0,-100.00,SSW,205,6.0,9.0,64,0.00,,,-99.99,,2013-05-10 18:43:00,
2013-05-10 14:54:00,72.0,60.0,-100.00,West,260,7.0,10.0,66,0.00,,,-99.99,,2013-05-10 18:54:00,
2013-05-10 15:02:00,65.0,58.0,-100.00,SW,235,16.0,28.0,79,1.69,,,-99.99,,2013-05-10 19:02:00,
2013-05-10 15:11:00,63.0,60.0,-100.00,SW,230,7.0,17.0,91,1.10,,,-99.99,,2013-05-10 19:11:00,
2013-05-10 15:21:00,63.0,61.0,-100.00,SSW,195,6.0,11.0,94,9.06,,,-99.99,,2013-05-10 19:21:00,
2013-05-10 15:32:00,63.0,61.0,-100.00,SW,220,2.0,9.0,95,0.55,,,-99.99,,2013-05-10 19:32:00,
2013-05-10 15:42:00,64.0,62.0,-100.00,SSW,205,2.0,5.0,94,0.55,,,-99.99,,2013-05-10 19:42:00,
2013-05-10 15:52:00,64.0,-99.9,-100.00,SSW,195,1.0,4.0,-999,0.55,,,-99.99,,2013-05-10 19:52:00,
2013-05-10 16:02:00,64.0,64.0,-100.00,SW,225,1.0,6.0,97,0.55,,,-99.99,,2013-05-10 20:02:00,
2013-05-10 16:12:00,65.0,64.0,-100.00,SSW,205,1.0,3.0,97,0.00,,,-99.99,,2013-05-10 20:12:00,
2013-05-10 16:21:00,65.0,65.0,-100.00,WSW,240,1.0,3.0,96,0.00,,,-99.99,,2013-05-10 20:21:00,
2013-05-10 16:32:00,65.0,64.0,-100.00,South,185,2.0,5.0,94,0.00,,,-99.99,,2013-05-10 20:32:00,
2013-05-10 16:42:00,66.0,64.0,-100.00,SW,230,3.0,6.0,94,0.00,,,-99.99,,2013-05-10 20:42:00,
2013-05-10 16:52:00,65.0,63.0,-100.00,SW,235,10.0,16.0,94,0.55,,,-99.99,,2013-05-10 20:52:00,
2013-05-10 17:02:00,65.0,64.0,-100.00,SW,220,4.0,16.0,94,0.00,,,-99.99,,2013-05-10 21:02:00,
2013-05-10 17:11:00,65.0,63.0,-100.00,SW,235,4.0,12.0,93,0.00,,,-99.99,,2013-05-10 21:11:00,
2013-05-10 17:25:00,65.0,63.0,-100.00,SW,235,6.0,11.0,90,0.00,,,-99.99,,2013-05-10 21:25:00,
2013-05-10 17:32:00,65.0,63.0,-100.00,SW,225,4.0,7.0,92,0.00,,,-99.99,,2013-05-10 21:32:00,
2013-05-10 17:43:00,65.0,62.0,-100.00,SSW,205,4.0,9.0,90,0.00,,,-99.99,,2013-05-10 21:43:00,
2013-05-10 17:52:00,65.0,63.0,-100.00,SSW,205,4.0,9.0,91,0.00,,,-99.99,,2013-05-10 21:52:00,
2013-05-10 18:02:00,65.0,62.0,-100.00,SSW,210,3.0,9.0,90,0.00,,,-99.99,,2013-05-10 22:02:00,
2013-05-10 18:13:00,65.0,63.0,-100.00,SW,230,2.0,6.0,92,0.00,,,-99.99,,2013-05-10 22:13:00,
2013-05-10 18:22:00,65.0,63.0,-100.00,WSW,245,3.0,6.0,93,0.55,,,-99.99,,2013-05-10 22:22:00,
2013-05-10 18:32:00,64.0,63.0,-100.00,SSW,205,4.0,6.0,96,0.55,,,-99.99,,2013-05-10 22:32:00,
2013-05-10 18:42:00,64.0,-99.9,-100.00,SW,230,2.0,7.0,-999,4.53,,,-99.99,,2013-05-10 22:42:00,
2013-05-10 18:53:00,64.0,-99.9,-100.00,SSW,200,4.0,9.0,-999,1.10,,,-99.99,,2013-05-10 22:53:00,
2013-05-10 19:02:00,63.0,-99.9,-100.00,SSW,210,6.0,9.0,-999,1.69,,,-99.99,,2013-05-10 23:02:00,
2013-05-10 19:12:00,63.0,-99.9,-100.00,SW,215,3.0,8.0,-999,0.55,,,-99.99,,2013-05-10 23:12:00,
2013-05-10 19:22:00,63.0,-99.9,-100.00,SW,230,4.0,7.0,-999,1.10,,,-99.99,,2013-05-10 23:22:00,
2013-05-10 19:33:00,62.0,-99.9,-100.00,SSW,210,2.0,9.0,-999,2.24,,,-99.99,,2013-05-10 23:33:00,
2013-05-10 19:42:00,62.0,-99.9,-100.00,SSW,210,4.0,7.0,-999,0.55,,,-99.99,,2013-05-10 23:42:00,
2013-05-10 19:52:00,62.0,-99.9,-100.00,SSW,205,3.0,9.0,-999,0.00,,,-99.99,,2013-05-10 23:52:00,
2013-05-10 20:02:00,62.0,-99.9,-100.00,SSW,205,2.0,7.0,-999,0.00,,,-99.99,,2013-05-11 00:02:00,
2013-05-10 20:11:00,62.0,-99.9,-100.00,SW,220,2.0,5.0,-999,0.00,,,-99.99,,2013-05-11 00:11:00,
2013-05-10 20:22:00,62.0,-99.9,-100.00,West,270,1.0,5.0,-999,0.00,,,-99.99,,2013-05-11 00:22:00,
2013-05-10 20:32:00,62.0,-99.9,-100.00,SW,235,3.0,6.0,-999,0.55,,,-99.99,,2013-05-11 00:32:00,
2013-05-10 20:42:00,62.0,-99.9,-100.00,SW,215,6.0,9.0,-999,0.55,,,-99.99,,2013-05-11 00:42:00,
2013-05-10 20:52:00,62.0,-99.9,-100.00,SSW,210,4.0,11.0,-999,0.00,,,-99.99,,2013-05-11 00:52:00,
2013-05-10 21:01:00,62.0,-99.9,-100.00,SW,220,4.0,11.0,-999,0.00,,,-99.99,,2013-05-11 01:01:00,
2013-05-10 21:11:00,62.0,-99.9,-100.00,SW,225,4.0,6.0,-999,0.00,,,-99.99,,2013-05-11 01:11:00,
2013-05-10 21:22:00,62.0,-99.9,-100.00,SSW,205,4.0,7.0,-999,0.00,,,-99.99,,2013-05-11 01:22:00,
2013-05-10 21:32:00,62.0,-99.9,-100.00,SSW,210,6.0,9.0,-999,0.00,,,-99.99,,2013-05-11 01:32:00,
2013-05-10 21:42:00,62.0,-99.9,-100.00,SSW,205,6.0,12.0,-999,0.00,,,-99.99,,2013-05-11 01:42:00,
2013-05-10 21:52:00,62.0,-99.9,-100.00,SSW,210,3.0,9.0,-999,0.00,,,-99.99,,2013-05-11 01:52:00,
2013-05-10 22:02:00,62.0,-99.9,-100.00,SSW,210,6.0,9.0,-999,0.00,,,-99.99,,2013-05-11 02:02:00,
2013-05-10 22:12:00,62.0,-99.9,-100.00,SW,220,5.0,9.0,-999,0.00,,,-99.99,,2013-05-11 02:12:00,
2013-05-10 22:22:00,62.0,-99.9,-100.00,South,190,3.0,6.0,-999,0.00,,,-99.99,,2013-05-11 02:22:00,
2013-05-10 22:32:00,62.0,-99.9,-100.00,SSW,210,4.0,8.0,-999,0.00,,,-99.99,,2013-05-11 02:32:00,
2013-05-10 22:42:00,62.0,-99.9,-100.00,SSW,205,2.0,7.0,-999,0.00,,,-99.99,,2013-05-11 02:42:00,
2013-05-10 22:52:00,62.0,-99.9,-100.00,South,190,3.0,6.0,-999,0.00,,,-99.99,,2013-05-11 02:52:00,
2013-05-10 23:01:00,62.0,-99.9,-100.00,SW,220,2.0,4.0,-999,0.00,,,-99.99,,2013-05-11 03:01:00,
2013-05-10 23:11:00,62.0,-99.9,-100.00,SSW,205,4.0,6.0,-999,0.00,,,-99.99,,2013-05-11 03:11:00,
2013-05-10 23:22:00,62.0,-99.9,-100.00,SSW,205,4.0,6.0,-999,0.00,,,-99.99,,2013-05-11 03:22:00,
2013-05-10 23:33:00,62.0,-99.9,-100.00,SSW,210,2.0,5.0,-999,0.00,,,-99.99,,2013-05-11 03:33:00,
2013-05-10 23:43:00,62.0,-99.9,-100.00,SSW,195,2.0,6.0,-999,0.00,,,-99.99,,2013-05-11 03:43:00,
2013-05-10 23:53:00,62.0,-99.9,-100.00,SW,225,3.0,6.0,-999,0.00,,,-99.99,,2013-05-11 03:53:00,